Temp
77 71 69 76 78 80 79 78 78 82 88 84 82 84 84 85 86 85 85 84 85 86 89 90 90 91 91 91 88 87 86 86 87 88 88 89 89 90 92 93 92 91 91 91
72 67 77 80 80 77 76 73 75 81 85 84 84 83 89 86 84 86 85 84 85 86 88 88 89 90 90 88 88 86 86 85 85 89 89 91 91 93 94 94 92 92 92 91
70 74 79 77 74 71 73 73 75 76 81 84 82 80 83 89 87 88 88 87 88 87 87 87 87 88 90 88 87 86 85 85 85 88 89 88 90 91 90 91 92 93 92 92
72 79 73 73 70 73 69 78 77 75 73 70 82 69 79 86 84 85 87 87 88 88 89 90 89 88 90 89 90 88 86 85 86 86 87 85 88 88 92 93 94 94 92 92
69 71 71 69 71 77 71 80 76 75 72 73 76 72 79 86 82 84 87 88 90 89 90 91 90 90 91 91 91 89 86 85 86 85 86 87 86 92 93 93 90 89 90 91
72 79 76 76 78 77 79 75 75 75 73 63 72 73 75 81 83 86 89 90 90 91 91 92 93 93 91 93 92 91 86 84 85 85 84 85 86 88 91 90 91 92 93 93
68 70 76 78 73 77 75 71 62 59 60 60 76 71 75 87 91 91 90 91 92 93 92 91 91 91 90 90 90 90 87 83 85 85 85 85 85 86 86 87 90 91 93 94
61 59 71 77 73 71 71 72 64 54 60 65 75 67 75 87 92 95 95 96 95 93 94 92 91 91 91 90 90 89 87 84 85 85 85 85 85 89 90 88 93 93 95 95
59 59 68 68 76 75 71 66 78 70 74 68 74 75 84 88 88 90 91 94 95 94 94 93 93 93 92 91 90 89 88 85 85 86 85 85 86 86 89 89 89 93 92 95
60 53 66 68 69 72 71 79 65 68 55 55 67 70 72 78 83 88 90 91 94 96 96 95 95 93 93 93 92 90 89 85 86 88 87 87 87 87 88 89 88 89 91 90
61 57 60 64 64 66 67 65 69 73 68 60 60 69 85 83 85 86 90 94 96 96 97 97 96 96 95 95 93 91 89 87 87 88 88 88 88 88 88 89 88 88 88 89
60 58 53 59 69 70 68 67 70 62 60 67 67 71 90 88 89 91 91 95 98 100 100 99 100 97 95 93 94 93 92 90 89 90 88 87 88 88 88 87 89 89 87 88
59 54 48 53 63 68 61 66 69 70 71 63 62 66 86 86 86 89 92 94 96 97 98 100 100 98 95 94 93 93 93 93 93 91 90 89 88 88 88 88 88 89 87 87
57 55 50 51 53 58 52 58 61 63 59 62 65 70 79 82 84 87 89 91 93 93 95 97 97 98 96 93 92 92 93 96 95 93 91 88 87 88 88 89 88 88 88 87
57 47 52 54 56 55 55 55 57 56 59 58 66 69 76 82 84 86 89 90 89 90 91 93 96 96 95 93 92 91 93 94 95 93 92 89 88 88 88 88 88 88 88 87
54 46 51 48 54 54 53 57 59 59 59 60 63 64 77 83 84 83 85 84 84 87 89 92 93 94 94 93 91 91 91 93 94 91 91 90 88 88 87 87 87 87 87 87
49 48 46 43 53 53 47 56 59 61 64 61 57 67 76 78 80 80 78 79 80 82 84 86 90 93 94 94 92 91 91 93 91 90 89 89 87 86 86 87 86 86 86 87
45 45 47 43 48 37 55 66 66 64 66 68 67 71 75 78 82 80 78 76 77 80 81 83 88 91 95 98 97 92 93 91 89 88 88 88 87 86 86 86 85 85 86 86
52 43 40 39 43 50 55 54 51 52 60 70 68 70 75 75 80 79 77 77 77 78 80 82 86 89 91 96 97 93 91 91 89 88 87 88 87 86 86 85 85 86 86 86
51 49 37 41 34 33 43 48 52 51 53 66 66 67 69 72 67 78 74 75 76 78 81 82 85 89 91 91 99 93 90 90 87 87 88 89 88 87 86 86 85 86 86 86
37 37 32 37 36 44 55 48 47 37 51 63 65 66 69 70 71 71 71 71 74 76 80 82 88 89 91 94 96 91 90 88 89 90 89 88 88 86 87 86 86 86 86 88
36 34 35 38 34 31 49 45 38 45 60 58 62 66 67 68 68 66 67 67 70 74 78 77 85 93 94 93 93 88 86 88 89 89 89 88 87 88 89 86 86 86 85 84
33 42 37 41 41 45 46 44 47 49 52 54 57 62 65 64 63 63 63 63 64 70 76 78 77 78 82 89 89 85 86 88 88 87 87 86 86 86 89 85 84 86 85 88
34 38 34 35 42 41 43 46 47 49 50 56 57 58 60 60 61 65 61 61 62 63 66 72 75 74 73 75 76 76 84 87 86 85 85 86 85 84 87 89 89 89 90 88
38 40 36 36 41 44 45 47 49 51 54 55 56 56 57 59 58 60 60 60 60 61 61 64 68 68 67 71 74 76 80 85 85 85 86 86 88 85 87 89 91 91 93 87
41 37 35 35 42 41 44 48 51 50 52 54 54 55 57 57 56 58 60 61 60 61 61 60 62 63 65 68 72 73 75 72 85 84 87 89 91 89 91 90 88 53 56 52
MSLP
1006.92 1006.34 1004.43 1004.06 1004.05 1003.19 1002.57 1002.06 1001.28 1001.12 1001.17 1001.49 1001.32 1001.37 1002.44 1003.83 1004.57 1005.31 1006.23 1007.28 1008.01 1008.62 1009.61 1010.74 1011.68 1012.53 1013.14 1013.87 1014.70 1015.59 1016.17 1016.77 1017.38 1017.63 1017.73 1017.74 1017.74 1018.01 1018.20 1018.32 1018.80 1019.18 1019.41 1019.55
1006.33 1004.87 1004.57 1004.59 1004.25 1004.06 1003.53 1002.95 1002.04 1001.53 1001.34 1001.40 1000.82 1000.70 1001.02 1002.59 1003.71 1004.37 1005.25 1006.28 1007.13 1008.02 1008.88 1009.98 1010.95 1011.73 1012.48 1013.28 1014.13 1015.10 1015.85 1016.50 1017.12 1017.22 1017.32 1017.32 1017.45 1017.58 1017.71 1017.92 1018.40 1018.83 1019.09 1019.39
1004.76 1003.82 1004.48 1004.41 1004.41 1004.26 1003.77 1003.02 1002.33 1001.98 1001.65 1001.70 1001.00 1000.21 1000.31 1000.90 1002.79 1003.59 1004.60 1005.72 1006.50 1007.21 1008.00 1009.06 1010.05 1010.84 1011.75 1012.47 1013.43 1014.41 1015.38 1016.04 1016.67 1016.81 1017.20 1017.43 1017.47 1017.59 1017.92 1017.94 1018.14 1018.36 1018.75 1019.04
1004.67 1004.05 1004.26 1004.22 1004.25 1004.35 1003.12 1003.38 1003.18 1002.79 1002.41 1000.70 1001.04 999.38 999.41 1000.05 1001.30 1002.48 1003.44 1004.49 1005.23 1006.23 1007.23 1008.04 1009.05 1009.96 1010.63 1011.55 1012.69 1013.77 1014.80 1015.56 1016.15 1016.69 1016.73 1016.95 1016.85 1016.87 1017.07 1017.44 1017.60 1017.88 1018.44 1018.66
1004.02 1003.99 1003.82 1003.83 1003.77 1003.81 1003.24 1003.10 1003.22 1003.25 1002.64 1001.72 1000.02 999.62 998.34 998.79 999.54 1000.77 1002.05 1002.94 1003.94 1005.16 1005.95 1006.58 1007.54 1008.62 1009.70 1010.82 1011.63 1012.78 1014.04 1014.95 1015.40 1016.04 1016.27 1016.68 1016.68 1016.45 1016.82 1017.21 1017.65 1017.93 1018.27 1018.52
1004.64 1003.96 1003.77 1003.23 1003.62 1003.78 1003.76 1003.60 1003.23 1003.05 1002.40 1000.76 999.86 999.10 997.54 997.19 997.86 999.32 1000.39 1001.52 1002.68 1003.56 1004.72 1005.53 1006.56 1007.85 1008.82 1009.89 1010.90 1011.83 1012.98 1013.98 1014.83 1015.40 1016.10 1016.29 1016.31 1016.27 1016.39 1016.98 1017.26 1017.52 1017.79 1018.15
1004.66 1004.11 1003.88 1003.46 1002.95 1003.20 1003.47 1002.56 1001.70 1001.46 1000.54 998.77 999.15 998.66 997.42 996.73 996.88 998.05 998.80 999.98 1001.16 1002.32 1003.46 1004.54 1005.46 1006.40 1007.58 1008.53 1009.58 1010.67 1011.88 1012.98 1013.81 1014.47 1015.14 1015.76 1016.16 1016.46 1016.52 1016.80 1016.98 1016.91 1017.11 1017.38
1004.40 1003.41 1003.27 1003.18 1002.68 1002.00 1002.30 1001.77 999.90 998.86 997.97 997.78 998.44 996.40 996.61 997.44 997.16 996.92 997.81 998.48 999.96 1001.14 1002.16 1003.31 1004.33 1005.36 1006.34 1007.37 1008.51 1009.64 1010.60 1011.80 1012.71 1013.49 1014.14 1014.92 1015.53 1015.81 1016.19 1016.53 1016.23 1016.57 1016.56 1016.79
1005.75 1004.81 1004.71 1004.74 1003.46 1002.86 1001.60 1001.26 1000.52 999.07 997.79 996.94 995.80 996.63 996.79 996.46 997.06 997.54 997.82 997.78 998.36 999.72 1000.76 1001.86 1003.06 1004.08 1005.07 1006.27 1007.26 1008.27 1009.32 1010.63 1011.56 1012.34 1013.33 1014.03 1014.70 1015.14 1015.24 1015.73 1016.17 1016.25 1016.48 1016.45
1007.86 1006.54 1005.38 1004.86 1005.20 1003.99 1002.59 1001.20 1000.94 999.75 998.19 996.57 995.84 995.41 995.41 996.00 996.06 996.52 996.87 997.44 997.80 998.56 999.62 1000.66 1001.79 1002.92 1003.89 1004.92 1006.19 1007.50 1008.56 1009.41 1010.21 1011.30 1012.20 1012.98 1013.73 1014.46 1014.86 1015.30 1015.70 1015.86 1016.04 1016.56
1009.33 1008.19 1005.90 1005.88 1004.40 1002.92 1002.94 1002.16 1001.11 999.94 999.09 997.19 996.24 994.76 994.79 995.08 995.52 995.81 996.04 996.16 996.63 997.48 998.34 999.36 1000.33 1001.56 1002.76 1003.88 1005.15 1006.24 1007.45 1008.48 1009.41 1010.10 1010.89 1011.86 1012.62 1013.37 1014.14 1014.63 1015.16 1015.63 1015.97 1016.17
1010.17 1008.98 1006.98 1005.64 1004.48 1004.52 1003.70 1002.04 1001.41 999.86 999.08 998.16 996.83 994.92 994.41 994.98 995.10 995.21 995.66 995.43 995.68 996.21 997.04 998.07 998.99 1000.41 1001.74 1002.74 1003.71 1004.84 1006.00 1007.15 1008.01 1008.66 1009.72 1010.72 1011.61 1012.36 1013.11 1013.84 1014.32 1014.93 1015.42 1015.78
1010.97 1009.54 1007.96 1006.36 1005.72 1005.15 1004.85 1003.73 1002.73 1001.34 999.96 998.01 997.33 996.26 995.93 995.82 995.76 995.52 995.08 995.30 995.56 996.02 996.46 997.00 998.00 998.88 1000.26 1001.55 1002.60 1003.40 1004.54 1005.46 1006.54 1007.54 1008.43 1009.45 1010.48 1011.34 1012.08 1012.77 1013.56 1014.14 1014.69 1015.12
1012.33 1010.34 1009.02 1006.48 1006.34 1006.40 1006.34 1005.57 1004.84 1003.56 1001.44 1000.00 998.38 996.90 995.86 996.06 996.05 995.93 995.97 995.87 995.96 996.13 996.53 996.84 997.44 998.15 999.18 1000.40 1001.56 1002.53 1003.44 1004.32 1005.26 1006.39 1007.24 1008.12 1009.16 1010.06 1011.10 1011.80 1012.60 1013.38 1013.92 1014.44
1012.42 1011.00 1010.11 1009.20 1008.42 1008.23 1007.51 1006.79 1006.16 1005.20 1004.00 1001.65 999.76 998.24 997.00 996.41 996.44 996.44 996.42 996.42 996.80 997.01 996.93 996.77 997.00 997.58 998.40 999.57 1000.55 1001.85 1002.72 1003.50 1004.18 1005.22 1006.16 1006.98 1007.94 1008.92 1010.04 1010.92 1011.67 1012.38 1013.01 1013.53
1013.22 1011.81 1011.12 1010.00 1009.39 1008.60 1007.43 1006.58 1005.85 1005.20 1004.65 1003.63 1002.25 1000.08 998.91 997.69 997.63 997.83 997.52 997.94 997.86 997.62 997.48 997.25 997.30 997.52 997.92 998.77 999.73 1000.78 1001.79 1002.38 1003.33 1004.14 1005.04 1006.08 1007.19 1007.98 1008.76 1009.74 1010.62 1011.45 1012.02 1012.68
1013.12 1012.46 1011.48 1009.98 1009.30 1008.23 1006.91 1005.76 1005.10 1004.20 1004.00 1003.79 1002.14 1001.26 999.86 998.59 998.19 998.36 999.14 999.19 998.99 998.72 998.44 998.16 997.80 997.44 997.60 998.16 999.02 999.70 1000.41 1001.54 1002.47 1003.33 1004.46 1005.38 1006.32 1007.12 1007.86 1008.62 1009.54 1010.25 1010.93 1011.60
1013.41 1012.89 1012.22 1010.85 1009.81 1007.84 1006.58 1005.71 1004.68 1003.42 1002.83 1002.86 1002.58 1001.57 1000.25 999.39 998.87 999.39 999.98 999.91 999.82 999.41 999.06 998.69 998.20 997.60 997.26 997.44 998.04 999.58 1000.36 1001.18 1001.98 1002.85 1003.74 1004.55 1005.49 1006.22 1007.10 1007.80 1008.47 1009.32 1010.05 1010.60
1013.66 1014.00 1012.94 1011.51 1009.48 1007.92 1007.01 1007.79 1007.58 1006.08 1002.40 1002.12 1001.84 1001.95 1000.94 1000.96 999.99 999.35 1000.31 1000.27 1000.26 999.92 999.42 998.87 998.24 997.70 997.27 996.70 997.10 998.32 999.39 1000.32 1001.30 1002.04 1002.78 1003.49 1004.38 1005.35 1006.28 1006.92 1007.56 1008.40 1009.15 1009.60
1012.85 1013.55 1014.24 1012.28 1010.82 1009.00 1009.34 1009.47 1009.60 1008.90 1003.99 1002.91 1003.54 1002.57 1002.00 1001.77 1000.44 999.39 1000.81 1000.54 1000.20 999.98 999.29 998.46 997.66 997.00 996.48 996.26 996.12 997.18 998.41 999.29 1000.02 1000.72 1001.49 1002.71 1003.65 1004.50 1005.30 1006.04 1006.76 1007.63 1008.30 1008.58
1013.26 1013.99 1014.05 1012.96 1011.78 1010.25 1009.71 1010.70 1011.13 1009.81 1006.05 1004.97 1004.47 1003.47 1002.68 1001.65 1001.63 1001.94 1001.86 1001.52 1001.28 1000.40 999.31 998.31 996.51 995.62 995.08 995.28 995.58 996.40 997.70 998.04 999.20 1000.78 1001.59 1002.35 1003.12 1003.78 1004.54 1005.40 1006.16 1006.77 1007.38 1007.66
1013.86 1014.06 1013.76 1013.51 1012.60 1011.49 1011.57 1011.46 1012.08 1009.89 1007.75 1007.30 1005.65 1004.71 1003.56 1003.20 1003.30 1003.47 1002.88 1002.77 1001.96 1000.51 999.43 998.59 996.53 994.92 994.88 995.13 995.56 996.54 997.55 998.76 999.69 1000.16 1000.91 1001.75 1002.61 1003.37 1004.06 1004.79 1005.46 1006.09 1006.63 1007.17
1014.86 1013.90 1013.94 1013.36 1012.19 1011.88 1011.93 1012.32 1011.81 1010.54 1009.25 1008.67 1007.57 1006.23 1005.11 1004.91 1004.72 1004.36 1004.06 1003.61 1002.85 1001.71 1000.34 999.45 998.82 997.96 996.83 996.30 996.68 997.41 997.98 998.75 999.45 999.97 1000.49 1001.37 1002.25 1003.01 1003.36 1004.29 1004.90 1005.53 1006.06 1006.17
1015.53 1015.31 1014.98 1014.46 1013.00 1012.94 1012.65 1012.41 1011.57 1010.84 1009.88 1008.95 1008.34 1007.40 1006.64 1006.04 1005.74 1004.88 1004.51 1004.20 1003.80 1003.47 1002.80 1001.80 1001.00 1000.12 999.54 999.42 999.08 998.97 998.59 998.89 999.46 999.80 1000.42 1001.23 1001.98 1002.73 1003.22 1003.90 1004.44 1004.75 1004.86 1005.40
1015.74 1015.32 1014.83 1014.04 1013.50 1012.59 1012.24 1011.54 1010.74 1010.25 1009.71 1009.14 1008.65 1007.98 1007.41 1006.82 1006.42 1005.93 1005.38 1004.99 1004.85 1004.52 1004.32 1004.01 1003.07 1002.23 1001.65 1001.18 1000.89 1000.56 999.81 999.26 999.33 999.65 1000.04 1000.64 1001.31 1002.20 1002.58 1003.06 1003.66 1004.00 1003.92 1004.54
1015.87 1015.70 1015.17 1014.39 1013.89 1013.07 1012.30 1011.28 1010.62 1010.06 1009.42 1009.55 1009.00 1008.24 1007.85 1007.46 1007.09 1006.68 1006.20 1005.69 1005.53 1005.24 1005.13 1004.75 1004.40 1003.73 1003.35 1003.02 1002.41 1001.89 1000.84 1000.15 999.38 999.72 999.94 1000.07 1000.42 1001.36 1001.67 1002.38 1003.44 1004.33 1004.74 1005.10
Wind_Speed
15 17 22 21 20 19 8 13 20 12 13 17 20 17 16 14 15 16 17 19 21 22 23 22 21 21 20 19 18 17 16 14 11 10 10 9 9 7 6 5 5 5 6 5
12 20 19 18 16 18 17 13 15 11 10 14 19 21 16 18 16 17 18 19 21 21 23 23 23 22 22 21 19 18 17 16 13 10 9 8 8 8 7 6 5 6 7 7
18 5 20 17 16 17 20 20 14 13 12 14 16 21 22 18 15 15 17 17 19 22 24 25 25 24 23 22 21 19 18 17 15 12 9 7 7 5 6 6 7 7 7 7
17 20 8 18 21 20 21 19 17 13 12 14 19 16 20 20 18 19 18 20 21 23 23 23 25 25 25 23 21 20 19 18 16 15 12 13 10 9 8 7 7 7 8 7
12 13 19 18 18 21 17 15 16 16 16 17 17 18 17 25 24 22 21 22 22 23 25 25 27 26 25 23 22 21 20 18 16 16 13 12 12 10 8 7 8 7 7 7
18 5 11 22 19 12 12 17 16 16 15 19 24 19 20 22 24 21 21 22 22 24 25 25 24 24 23 23 22 21 21 19 18 18 18 14 14 11 10 10 9 8 8 8
17 18 17 13 18 20 16 17 11 13 16 17 20 21 18 18 20 20 22 22 23 23 24 24 24 25 24 26 25 22 21 20 20 21 19 18 16 15 13 11 10 9 8 7
10 15 20 19 18 20 24 20 12 19 16 18 20 18 21 25 14 14 17 21 21 22 22 24 25 24 25 26 26 24 22 22 23 21 19 17 17 13 13 13 10 10 9 8
5 15 3 5 13 13 20 26 22 24 16 13 16 20 18 21 26 18 13 16 18 22 23 26 26 26 26 26 26 25 23 22 22 23 18 18 17 17 14 13 13 10 9 7
4 9 6 4 8 17 21 12 23 17 21 21 14 17 12 23 22 26 25 19 18 19 21 22 24 25 24 26 25 26 24 24 23 23 20 18 18 17 15 14 14 12 12 11
4 6 8 6 13 19 18 20 16 19 19 17 17 13 12 14 22 22 24 24 22 18 20 21 22 24 25 23 24 26 25 25 23 22 20 19 19 20 18 16 15 14 13 13
2 7 11 15 3 8 16 14 27 15 25 20 18 7 11 11 14 17 22 19 21 23 22 21 21 22 23 25 25 26 26 25 24 22 20 21 19 18 19 17 17 15 15 15
6 6 10 15 17 13 10 11 15 17 19 21 19 19 9 5 4 7 12 19 18 16 17 16 19 20 22 24 23 25 26 26 25 23 24 22 21 20 18 19 17 16 15 15
5 11 12 13 12 11 6 9 5 13 16 17 19 18 20 22 14 12 9 6 5 5 12 15 17 19 21 22 21 22 24 25 25 24 23 21 21 20 20 18 17 17 16 16
10 12 11 14 14 11 14 15 16 19 17 22 18 22 17 12 12 13 10 8 3 6 7 14 16 18 20 21 20 22 23 21 23 21 22 21 20 20 19 17 17 17 17 16
9 10 10 13 15 17 21 19 19 21 22 19 21 24 22 20 5 12 8 6 8 8 6 6 11 15 17 21 22 22 22 22 21 21 21 19 19 19 19 19 18 17 17 17
13 10 11 15 12 16 15 20 22 23 24 22 24 21 23 20 12 9 8 6 8 9 9 9 11 13 16 19 20 22 24 21 21 20 20 19 20 19 19 18 17 18 18 16
9 14 10 13 11 17 15 15 21 25 22 24 24 21 24 23 18 3 5 6 8 9 10 11 12 14 15 17 20 20 22 21 20 19 20 20 19 19 18 18 18 17 16 17
18 11 8 12 13 16 16 10 19 20 24 24 13 20 21 16 23 15 2 6 8 11 12 13 15 15 14 17 19 20 21 22 21 21 21 21 20 19 18 19 18 17 16 16
19 17 8 10 10 15 3 8 17 26 12 10 15 17 15 14 15 11 7 9 10 11 11 13 16 16 18 18 20 21 22 21 22 23 22 19 19 18 19 18 17 16 15 16
11 10 14 14 13 10 9 8 16 6 5 3 8 7 10 15 5 10 8 9 8 8 11 14 15 15 15 17 18 19 20 24 21 19 20 18 18 18 17 16 15 15 15 14
10 8 9 13 15 17 9 7 7 8 6 7 4 1 3 6 8 9 12 12 12 13 11 12 12 3 7 12 14 16 16 14 16 17 18 17 17 15 15 16 15 15 14 14
4 4 3 6 3 10 8 9 14 13 10 4 7 6 5 7 8 9 11 14 15 17 15 13 11 13 16 6 11 14 13 14 15 16 16 16 16 16 13 15 15 13 14 13
4 2 3 3 4 7 7 13 14 14 11 6 6 5 6 6 7 10 11 13 14 14 16 15 14 15 16 13 12 11 6 13 15 15 15 14 14 14 14 12 12 12 13 13
4 6 5 5 7 11 7 13 12 4 8 2 4 6 8 8 9 10 10 10 10 11 12 13 14 15 16 13 14 12 9 12 12 13 13 13 12 13 13 11 9 11 11 7
8 5 4 3 11 9 6 11 10 7 6 4 4 7 9 10 10 10 9 8 8 10 11 11 12 13 14 13 13 13 13 13 8 11 10 10 10 11 10 11 9 9 8 7
Wind_Direction
200 208 213 212 218 241 291 224 237 210 215 208 221 223 163 177 191 185 185 187 190 193 185 187 192 190 193 191 187 189 189 184 188 193 195 193 195 189 194 210 209 204 205 193
183 226 222 235 220 229 236 236 236 247 212 232 224 226 209 176 199 193 191 190 191 190 189 190 191 193 196 192 191 191 194 186 195 194 203 201 203 191 203 199 184 203 189 184
220 223 216 223 223 219 229 227 231 236 210 226 243 232 218 194 195 207 199 198 194 192 193 191 193 197 195 194 194 194 195 190 193 202 195 191 196 216 199 188 188 186 195 186
236 245 201 212 223 217 232 216 244 235 247 234 207 232 216 212 206 209 198 197 198 193 197 193 194 198 198 198 194 195 196 197 191 196 192 194 197 198 198 195 195 179 197 194
218 218 229 222 227 220 244 243 218 232 238 256 240 230 234 207 208 205 204 203 201 195 196 196 197 197 200 198 197 194 195 198 197 190 214 195 219 202 196 206 172 221 179 205
264 203 258 228 223 219 226 232 228 231 233 235 232 236 218 228 206 204 206 203 203 193 199 201 197 196 199 199 199 197 194 196 197 194 201 207 205 223 205 204 194 204 205 190
223 238 230 238 218 207 214 207 196 211 212 234 217 234 236 221 212 215 207 201 200 201 197 198 198 197 197 199 197 198 192 196 196 197 196 203 213 210 209 202 211 213 211 210
257 215 213 207 242 205 212 211 229 213 212 226 213 227 223 238 269 211 222 202 198 201 202 199 202 201 197 199 198 198 190 193 197 198 197 197 201 209 213 208 223 216 223 208
272 237 111 260 231 254 199 219 227 255 251 256 217 209 247 212 222 217 221 229 192 200 204 201 201 202 199 198 198 196 194 192 195 196 195 196 198 212 211 220 207 225 228 236
90 267 186 151 249 241 259 219 220 237 241 242 220 235 207 207 218 213 217 206 212 200 205 205 202 203 201 199 199 198 197 193 193 195 195 199 200 205 217 211 221 219 224 223
294 258 169 215 211 221 207 238 241 232 230 242 235 222 226 229 211 219 222 220 205 205 204 204 203 205 205 203 197 198 198 197 198 198 195 200 201 205 210 218 219 222 220 211
170 289 258 248 134 320 309 263 224 232 221 237 271 246 210 193 227 214 229 219 222 212 209 208 207 199 202 203 200 198 197 199 200 197 194 195 198 202 205 212 214 211 216 212
184 223 246 227 229 224 250 255 254 267 268 245 226 226 246 169 231 284 231 223 217 225 226 226 208 205 200 202 203 200 198 198 196 194 193 195 200 201 205 206 211 210 210 215
256 262 259 275 15 7 281 276 239 284 249 238 244 255 213 234 246 262 216 258 296 282 243 225 212 207 200 200 199 203 201 200 198 194 196 191 193 196 203 204 203 208 209 215
249 255 245 262 282 280 273 270 259 257 265 255 252 237 251 253 270 273 307 296 265 249 238 221 213 209 201 199 197 198 204 200 200 193 197 193 193 192 195 200 201 203 207 212
236 249 265 259 270 270 267 275 269 250 247 253 258 269 288 289 290 290 297 297 283 270 264 248 223 222 209 203 200 195 201 201 198 193 198 192 193 192 192 195 197 199 204 209
222 243 244 255 256 263 263 260 252 255 236 236 237 245 261 264 247 280 295 282 282 278 276 270 260 231 219 208 200 201 198 195 194 193 193 192 192 193 195 192 193 198 203 203
241 239 251 260 266 250 256 287 269 269 236 228 240 246 243 260 284 275 291 312 295 291 284 273 262 251 242 216 203 205 197 199 192 193 191 191 192 193 193 192 195 198 202 205
223 233 253 247 246 252 265 4 354 328 272 218 227 244 250 267 276 217 331 328 306 296 285 275 267 260 251 235 206 195 198 195 192 195 194 192 190 191 192 195 195 198 203 205
208 215 216 264 256 256 319 329 330 323 249 151 226 245 249 249 237 224 7 354 326 312 300 288 271 253 233 227 207 191 194 190 195 195 195 191 189 189 194 194 192 195 202 208
202 202 226 234 250 257 278 7 351 267 62 111 237 240 250 240 348 34 17 20 348 324 317 308 268 242 226 208 204 186 192 197 195 192 193 190 191 191 192 189 191 194 201 206
192 198 206 231 251 248 36 16 242 328 10 340 308 270 93 75 58 49 50 34 24 14 11 5 353 257 181 185 194 175 195 182 192 189 190 188 189 193 191 193 193 197 199 207
226 240 263 255 235 3 334 248 269 287 309 315 327 2 3 72 57 45 46 38 37 30 30 34 36 40 29 132 165 185 180 190 187 187 186 186 188 193 192 192 193 195 200 213
234 277 248 299 183 266 250 273 271 279 297 305 313 355 17 47 34 47 30 29 29 32 31 28 50 54 54 43 41 27 175 183 183 180 180 181 186 190 200 190 196 206 203 207
307 314 279 264 280 300 233 257 262 263 275 330 326 6 10 21 24 16 22 21 21 26 26 23 35 45 43 41 47 35 14 172 180 177 178 178 186 188 189 206 201 208 218 227
352 353 344 341 335 337 352 4 6 61 30 32 357 31 25 27 18 9 25 17 10 27 27 15 17 26 33 37 44 38 35 26 145 164 170 169 180 173 190 184 181 85 84 29